Regional Weather Roundup
Issued by NWS State College, PA

Home | Current Version | Previous Version | Text Only | Print | Product List | Glossary Off
Versions: 1 2 3 4 5 6 7 8 9 10 11 12 13 14 15 16 17 18 19 20 21 22 23 24 25 26 27 28 29 30 31 32 33 34 35 36 37 38 39 40 41 42 43 44 45 46 47 48 49 50

000
ASUS41 KCTP 231110
RWRCTP

REGIONAL WEATHER ROUNDUP
NATIONAL WEATHER SERVICE STATE COLLEGE PA
700 AM EDT TUE SEP 23 2014

Note: "fair" indicates few or no clouds below 12,000 feet with no
significant weather and/or obstructions to visibility.

* = STATION THAT DOES NOT REPORT PRECIPITATION /E.G. RAIN...SNOW...ETC/
    THUNDER OR FOG.

PAZ002>004-007>009-013>016-020>023-029>032-231200-
WESTERN PENNSYLVANIA

CITY           SKY/WX    TMP DP  RH WIND       PRES   REMARKS
ERIE           CLEAR     46  41  82 S8        30.31R
MEADVILLE      CLEAR     41  38  89 CALM      30.32R
FRANKLIN*      CLEAR     37  36  93 CALM      30.34R
NEW CASTLE       N/A     36  36 100 CALM      30.35R
BEAVER COUNTY  CLEAR     43  41  93 CALM      30.33
BUTLER*        CLEAR     37  34  87 CALM      30.35R
PITTSBURGH INT PTCLDY    40  37  89 CALM      30.33R
PITTSBURGH     FOG       41  39  93 S3        30.33R VSB 1/4
INDIANA*       MOCLDY    37  37 100 CALM      30.37R
LATROBE        CLEAR     39  39 100 CALM      30.34R
WASHINGTON CO*   N/A     34  30  86 CALM      30.34S VSB 1/2
$$

PAZ004>006-010>012-017>019-024>028-033>037-041-042-045-046-049>053-231200-
CENTRAL PENNSYLVANIA

CITY           SKY/WX    TMP DP  RH WIND       PRES   REMARKS
BRADFORD       CLEAR     37  35  92 CALM      30.30R
DUBOIS         CLEAR     37  37 100 CALM      30.31R FOG
CLEARFIELD     FOG       39  38  96 CALM      30.33R VSB 3/4
JOHNSTOWN      FOG       38  35  89 S6        30.32R VSB 3/4
ALTOONA        CLEAR     38  37  97 CALM      30.33R
STATE COLLEGE  CLEAR     41  39  93 CALM      30.31R
WILLIAMSPORT   CLOUDY    42  39  89 CALM      30.32R
SELINSGROVE    CLEAR     39  37  92 CALM      30.32R
FT INDIANTOWN  CLEAR     40  40 100 N1        30.31R
CAPITAL CITY   CLEAR     48  42  80 CALM      30.31R
HARRISBURG     CLEAR     49  43  80 N5        30.31R
YORK           CLEAR     42  39  89 CALM      30.31R
$$

PAZ038>040-043-044-047-048-054-055-060>062-067>071-231200-
EASTERN PENNSYLVANIA

CITY           SKY/WX    TMP DP  RH WIND       PRES   REMARKS
SCRANTON       CLEAR     42  39  89 E6        30.30R
MOUNT POCONO   CLEAR     42  38  85 NW5       30.27R
ALLENTOWN      CLEAR     42  38  85 CALM      30.29R
QUAKERTOWN*    SUNNY     46  39  76 N6        30.30R
READING        CLEAR     46  40  79 CALM      30.29R
LANCASTER      CLEAR     44  40  85 W5        30.30R
COATESVILLE    SUNNY     46  41  81 NW7       30.29R
POTTSTOWN      CLEAR     42  39  89 NW6       30.31R
BLUE BELL      CLEAR     41  39  93 CALM      30.28R
DOYLESTOWN     CLEAR     43  39  86 N3        30.28R
WILLOW GROVE   NOT AVBL
NORTH PHILA    CLEAR     49  39  68 W3        30.31R
PHILADELPHIA   PTCLDY    51  41  68 NW5       30.30R
$$


USA.gov is the U.S. government's official web portal to all federal, state and local government web resources and services.